Weather History for Banff, AB

Change the Weather History Date:

Tuesday, October 9, 2012

  Actual Average Record
Temperature  
Mean Temperature 42 °F -  
Max Temperature 54 °F - - ()
Min Temperature 30 °F - - ()
Degree Days  
Heating Degree Days 23    
Moisture  
Dew Point 31 °F    
Average Humidity 73    
Maximum Humidity 99    
Minimum Humidity 36    
Precipitation  
Precipitation 0.00 in - - ()
Sea Level Pressure  
Sea Level Pressure 30.11 in    
Wind  
Wind Speed 3 mph ()    
Max Wind Speed 10 mph    
Max Gust Speed 20 mph    
T = Trace of Precipitation, MM = Missing Value Source: Averaged Metar Reports

Daily Weather History Graph

Daily Weather History Graph

Search for Another Location

Airport:

Trip Planner

Search our weather history database for the weather conditions in past years. The results will help you decide how hot, cold, wet, or windy it might be!

Date:

Astronomy

Oct. 09, 2012 Rise Set
Actual Time 7:56 AM MDT 7:00 PM MDT
Civil Twilight 7:23 AM MDT 7:34 PM MDT
Nautical Twilight 6:45 AM MDT 8:12 PM MDT
Astronomical Twilight 6:06 AM MDT 8:50 PM MDT
Moon 12:58 AM MDT (10/9) 4:05 PM MDT (10/9)
Length of Visible Light 12h 10m
Length of Day
11h 04m
Last Quarter, 36% of the Moon is Illuminated
Oct 9
Last Quarter
Oct 15
New
Oct 21
First Quarter
Oct 29
Full
Nov 6
Last Quarter

Hourly Weather History & Observations

Time (MDT) Temp. Windchill Dew Point Humidity Pressure Visibility Wind Dir Wind Speed Gust Speed Precip Events Conditions
12:00 AM 30.9 °F - 29.8 °F 96% 30.16 in - NE 1.2 mph - N/A   Unknown
1:00 AM 32.0 °F - 30.9 °F 96% 30.17 in - Calm Calm - N/A   Unknown
2:00 AM 31.6 °F - 31.3 °F 99% 30.17 in - Calm Calm - N/A   Unknown
3:00 AM 33.1 °F - 32.0 °F 96% 30.17 in - SW 2.3 mph - N/A   Unknown
4:00 AM 33.4 °F - 31.6 °F 93% 30.16 in - SSW 1.2 mph - N/A   Unknown
5:00 AM 33.3 °F 30.2 °F 32.0 °F 95% 30.15 in - WSW 3.5 mph - N/A   Unknown
6:00 AM 32.9 °F - 31.6 °F 95% 30.16 in - West 2.3 mph - N/A   Unknown
7:00 AM 33.1 °F 28.7 °F 31.8 °F 95% 30.16 in - WSW 4.6 mph - N/A   Unknown
8:00 AM 33.1 °F 28.7 °F 31.8 °F 95% 30.17 in - SW 4.6 mph - N/A   Unknown
9:00 AM 34.5 °F 30.4 °F 31.3 °F 88% 30.18 in - SW 4.6 mph - N/A   Unknown
10:00 AM 36.3 °F 32.5 °F 33.3 °F 89% 30.18 in - SW 4.6 mph - N/A   Unknown
11:00 AM 40.3 °F 36.3 °F 33.3 °F 76% 30.16 in - WSW 5.8 mph - N/A   Unknown
12:00 PM 42.8 °F 38.6 °F 33.4 °F 70% 30.14 in - WSW 6.9 mph - N/A   Unknown
1:00 PM 47.1 °F - 32.9 °F 58% 30.11 in - SW 9.2 mph - N/A   Unknown
2:00 PM 51.3 °F - 33.4 °F 51% 30.07 in - WSW 6.9 mph - N/A   Unknown
3:00 PM 54.1 °F - 28.0 °F 37% 30.04 in - SW 10.4 mph 19.6 mph N/A   Unknown
4:00 PM 54.7 °F - 27.9 °F 36% 30.03 in - SW 10.4 mph - N/A   Unknown
5:00 PM 54.7 °F - 27.9 °F 36% 30.02 in - SW 10.4 mph - N/A   Unknown
6:00 PM 53.2 °F - 28.4 °F 38% 30.02 in - West 3.5 mph - N/A   Unknown
7:00 PM 50.9 °F - 29.3 °F 43% 30.03 in - West 4.6 mph - N/A   Unknown
8:00 PM 47.1 °F - 30.4 °F 52% 30.04 in - WSW 4.6 mph - N/A   Unknown
9:00 PM 43.2 °F 40.5 °F 31.5 °F 63% 30.04 in - WSW 4.6 mph - N/A   Unknown
10:00 PM 40.1 °F 38.0 °F 31.3 °F 71% 30.03 in - WSW 3.5 mph - N/A   Unknown
11:00 PM 37.0 °F - 30.4 °F 77% 30.02 in - SSW 2.3 mph - N/A   Unknown